This is the latest recevied weather packets stored in our database for station/object K1TTC. If no packets are shown the sender has not sent any weather packets the latest 10 day(s).
| Time | Temp. | Humidity | Pressure | Rain* | Wind** | Luminosity | Snow |
|---|---|---|---|---|---|---|---|
| 1777467882 | 9.44° C | 68% | 1019.9 hPa | 0 mm | - | 134 W/m² | - |
| 1777467283 | 9.44° C | 68% | 1020 hPa | 0 mm | - | 264 W/m² | - |
| 1777466682 | 9.44° C | 67% | 1020.1 hPa | 0 mm | - | 167 W/m² | - |
| 1777466082 | 8.89° C | 67% | 1020.1 hPa | 0 mm | - | 141 W/m² | - |
| 1777465482 | 8.89° C | 68% | 1020.2 hPa | 0 mm | - | 142 W/m² | - |
| 1777464883 | 8.89° C | 67% | 1020.2 hPa | 0 mm | - | 149 W/m² | - |
| 1777464282 | 8.89° C | 67% | 1020.2 hPa | 0 mm | - | 135 W/m² | - |
| 1777463683 | 8.33° C | 68% | 1020 hPa | 0 mm | - | 153 W/m² | - |
| 1777463080 | 8.33° C | 68% | 1020.1 hPa | 0 mm | - | 113 W/m² | - |
| 1777462482 | 8.33° C | 68% | 1019.9 hPa | 0 mm | - | 121 W/m² | - |
| 1777461881 | 8.33° C | 67% | 1019.8 hPa | 0 mm | - | 100 W/m² | - |
| 1777461278 | 8.33° C | 67% | 1019.8 hPa | 0 mm | - | 74 W/m² | - |
| 1777460678 | 7.78° C | 67% | 1019.5 hPa | 0 mm | - | 65 W/m² | - |
| 1777460077 | 7.78° C | 67% | 1019.6 hPa | 0 mm | - | 54 W/m² | - |
| 1777459481 | 7.78° C | 66% | 1019.4 hPa | 0 mm | - | 42 W/m² | - |
| 1777458876 | 7.78° C | 66% | 1019.8 hPa | 0 mm | - | 23 W/m² | - |
| 1777458276 | 7.78° C | 66% | 1019.4 hPa | 0 mm | - | 19 W/m² | - |
| 1777457675 | 7.78° C | 66% | 1019.3 hPa | 0 mm | - | 11 W/m² | - |
| 1777457076 | 7.78° C | 65% | 1019.4 hPa | 0 mm | - | 7 W/m² | - |
| 1777456476 | 7.78° C | 65% | 1018.8 hPa | 0 mm | - | 0 W/m² | - |
| 1777455878 | 7.78° C | 64% | 1018.6 hPa | 0 mm | - | 0 W/m² | - |
| 1777455274 | 7.78° C | 64% | 1018.7 hPa | 0 mm | - | 0 W/m² | - |
| 1777454672 | 7.78° C | 64% | 1018.8 hPa | 0 mm | - | 0 W/m² | - |
| 1777454072 | 7.78° C | 64% | 1019 hPa | 0 mm | - | 0 W/m² | - |
| 1777453471 | 7.78° C | 64% | 1018.9 hPa | 0 mm | - | 0 W/m² | - |
* Rain latest hour (hover to see other rain measurements)
** Current wind speed in m/s (hover to see current wind gust speed)